Regional Weather Roundup
Issued by NWS

Home | Current Version | Previous Version | Text Only | Print | Product List | Glossary Off
Versions: 1 2 3 4 5 6 7 8 9 10 11 12 13 14 15 16 17 18 19 20 21 22 23 24 25 26 27 28 29 30 31 32 33 34 35 36 37 38 39 40 41 42 43 44 45 46 47 48 49 50

000
ASUS45 KCYS 291210
RWRWY

WYOMING REGIONAL WEATHER ROUNDUP
NATIONAL WEATHER SERVICE CHEYENNE WY
600 AM MDT WED MAR 29 2017

NOTE:  "FAIR" INDICATES FEW OR NO CLOUDS BELOW 12,000 FEET
WITH NO SIGNIFICANT WEATHER AND/OR OBSTRUCTIONS TO VISIBILITY.

WYZ001-291300-
YELLOWSTONE NATIONAL PARK

CITY           SKY/WX    TMP DP  RH WIND       PRES   REMARKS
LK YELLOWSTONE   N/A     25  22  88 CALM      30.20S
6HR MIN TEMP:  17; 6HR MAX TEMP:  25;

W YELLOWSTONE  NOT AVBL

$$
WYZ002>013-054>058-071-098>099-291300-
NORTHERN WYOMING

CITY           SKY/WX    TMP DP  RH WIND       PRES   REMARKS
JACKSON        FAIR      19  19 100 N6        30.22R WCI  11
CODY           FAIR      43  22  43 W10G18    30.11S
GREYBULL       FAIR      32  30  92 SE3       30.12S
6HR MIN TEMP:  32; 6HR MAX TEMP:  39;

WORLAND        FAIR      30  29  96 S6        30.12R WCI  24
6HR MIN TEMP:  30; 6HR MAX TEMP:  36;

SHERIDAN       FAIR      29  25  85 S3        30.08S
6HR MIN TEMP:  27; 6HR MAX TEMP:  34;

BUFFALO        FAIR      34  22  61 S7        30.10S WCI  28
6HR MIN TEMP:  32; 6HR MAX TEMP:  39;

GILLETTE       FAIR      32  31  96 S5        30.11S WCI  27
6HR MIN TEMP:  28; 6HR MAX TEMP:  41;

HULETT         FOG       36  34  93 S7        30.12F VSB 1/4 WCI  30
NEWCASTLE      CLOUDY    37  37 100 CALM      30.14S

$$
WYZ014>020-022>026-101>103-291300-
CENTRAL WYOMING

CITY           SKY/WX    TMP DP  RH WIND       PRES   REMARKS
BIG PINEY      FAIR      21  19  92 CALM      30.18S
6HR MIN TEMP:  21; 6HR MAX TEMP:  29;

PINEDALE       FAIR      27  19  74 W6        30.18S WCI  20
DUBOIS         FAIR      28  19  69 NW9       30.15S WCI  20
LANDER         FAIR      32  26  78 CALM      30.12F
6HR MIN TEMP:  30; 6HR MAX TEMP:  36;

RIVERTON       FAIR      30  29  96 SW7       30.13S WCI  23
6HR MIN TEMP:  28; 6HR MAX TEMP:  38;

CASPER         FAIR      29  27  92 SW8       30.14R WCI  21
6HR MIN TEMP:  26; 6HR MAX TEMP:  35;

DOUGLAS        CLOUDY    36  34  92 NW6       30.14R WCI  31
6HR MIN TEMP:  36; 6HR MAX TEMP:  40;


$$
WYZ021-027>030-104>119-291300-
SOUTHERN WYOMING

CITY           SKY/WX    TMP DP  RH WIND       PRES   REMARKS
EVANSTON       FAIR      26  20  77 SW5       30.21S WCI  20
6HR MIN TEMP:  26; 6HR MAX TEMP:  31;

KEMMERER         N/A     27  21  80 W8        30.20R WCI  18
FORT BRIDGER   FAIR      29  26  88 SW9       30.23S WCI  20
ROCK SPRINGS   FAIR      28  22  78 W13       30.18R WCI  17
6HR MIN TEMP:  27; 6HR MAX TEMP:  35;

DIXON            N/A     26  24  92 NE5       30.19S WCI  21
RAWLINS        FAIR      24  20  84 N3        30.16S
6HR MIN TEMP:  22; 6HR MAX TEMP:  36;

SARATOGA       CLOUDY    32  32 100 NW6       30.17S WCI  26
LARAMIE        CLOUDY    31  30  96 NW13      30.11S WCI  21
6HR MIN TEMP:  32; 6HR MAX TEMP:  33; 6HR PCP: TRACE;

CHEYENNE       CLOUDY    35  33  92 N9        30.09S WCI  28
6HR MIN TEMP:  34; 6HR MAX TEMP:  35; 6HR PCP: TRACE;

TORRINGTON     CLOUDY    38  38 100 W5        30.11S WCI  34
6HR MIN TEMP:  38; 6HR MAX TEMP:  40; 6HR PCP:  0.02;

PINE BLUFFS    CLOUDY    34  34 100 N8        30.10R WCI  27

$$



USA.gov is the U.S. government's official web portal to all federal, state and local government web resources and services.